DW1174 Weather Reports


time (UTC)temp
F
wind
direction
speed
knots
gust
knots
rain 1hr
in
rain 24hr
in
rain mn
in
humidity
%
barometer
mb
20260510054924 51 59 0.0 4.3 0.06 0.30 0.06 92 1006.6
20260510054351 51 59 0.0 4.3 0.06 0.30 0.06 91 1006.5
20260510053824 52 331 0.0 0.0 0.05 0.29 0.05 91 1007.2
20260510053312 52 331 0.0 0.0 0.04 0.28 0.04 90 1007.8
20260510052750 53 331 0.0 0.0 0.02 0.26 0.02 89 1007.6
20260510052253 53 340 0.9 2.6 0.02 0.26 0.02 89 1007.6
20260510051827 54 321 0.0 0.0 0.00 0.24 0.00 88 1007.0
20260510051803 54 347 0.0 4.3 0.01 0.25 0.01 88 1006.9
20260510051739 55 248 0.0 0.0 0.00 0.24 0.00 89 1006.2
20260510051731 55 248 0.0 2.6 0.00 0.24 0.00 89 1006.3
20260510045549 55 247 0.0 2.6 0.00 0.24 0.00 91 1006.1
20260510044559 55 183 0.0 0.0 0.00 0.24 0.00 92 1006.2
20260510043759 56 183 0.0 0.0 0.00 0.24 0.00 91 1005.9
20260510043226 56 183 0.0 0.0 0.00 0.24 0.00 90 1005.4
20260510042707 56 183 0.0 0.0 0.00 0.24 0.00 90 1005.4
20260510042119 56 183 0.0 0.0 0.00 0.24 0.00 90 1005.4
20260510041612 56 183 0.0 0.9 0.00 0.24 0.00 89 1005.5
20260510040948 56 183 0.0 1.7 0.00 0.24 0.00 89 1005.3
20260510040446 56 183 0.9 2.6 0.00 0.24 0.00 90 1005.1
20260510035911 56 183 1.7 4.3 0.00 0.24 0.24 91 1005.0
20260510035333 55 183 2.6 4.3 0.00 0.24 0.24 92 1004.9
20260510034819 55 182 1.7 3.5 0.00 0.24 0.24 92 1004.9
20260510034140 55 183 2.6 3.5 0.00 0.24 0.24 91 1004.9
20260510033633 55 183 2.6 3.5 0.00 0.24 0.24 91 1005.0
20260510033334 55 183 2.6 3.5 0.00 0.24 0.24 90 1004.9
20260510032609 55 183 2.6 3.5 0.00 0.24 0.24 90 1004.9
20260510032111 56 182 2.6 4.3 0.00 0.24 0.24 90 1004.9
20260510031602 55 182 2.6 4.3 0.00 0.24 0.24 91 1004.8
20260510031107 55 182 2.6 4.3 0.00 0.24 0.24 92 1004.8
20260510030543 55 182 2.6 4.3 0.00 0.24 0.24 92 1004.8
20260510030045 54 182 0.9 3.5 0.00 0.24 0.24 93 1004.8
20260510025523 54 182 0.0 2.6 0.00 0.24 0.24 93 1004.9
20260510025024 54 182 0.0 0.0 0.00 0.24 0.24 93 1004.5
20260510024442 54 182 0.0 0.0 0.00 0.24 0.24 92 1004.5
20260510023857 54 182 0.0 0.0 0.00 0.24 0.24 92 1004.7
20260510023310 55 182 0.0 0.0 0.00 0.24 0.24 91 1004.5
20260510022726 55 182 0.0 0.0 0.00 0.24 0.24 91 1004.5
20260510022133 55 182 0.0 0.0 0.00 0.24 0.24 91 1004.6
20260510021553 55 182 0.9 2.6 0.00 0.24 0.24 91 1004.7
20260510021001 55 182 0.9 2.6 0.00 0.24 0.24 91 1004.7
20260510020415 55 182 1.7 3.5 0.00 0.24 0.24 91 1004.6
20260510015910 55 182 1.7 3.5 0.00 0.24 0.24 91 1004.5
20260510015411 55 182 1.7 3.5 0.00 0.24 0.24 91 1004.5
20260510014822 55 182 1.7 4.3 0.00 0.24 0.24 91 1004.6
20260510014251 55 182 1.7 4.3 0.00 0.24 0.24 91 1004.5
20260510013752 56 182 0.9 2.6 0.00 0.24 0.24 91 1004.5
20260510013447 56 182 1.7 3.5 0.00 0.24 0.24 91 1004.1
20260510012654 56 182 1.7 3.5 0.00 0.24 0.24 91 1004.1
20260510012409 55 182 1.7 3.5 0.00 0.24 0.24 92 1004.0
20260510011636 55 182 1.7 4.3 0.00 0.24 0.24 92 1004.0
20260510011138 55 182 1.7 4.3 0.00 0.24 0.24 92 1003.9
20260510010621 55 182 1.7 4.3 0.00 0.24 0.24 92 1003.8
20260510010104 55 178 1.7 4.3 0.00 0.24 0.24 93 1003.8
20260510005820 55 178 2.6 5.2 0.00 0.24 0.24 93 1003.9
20260510005058 55 178 2.6 5.2 0.00 0.24 0.24 94 1003.9
20260510004748 55 173 1.7 4.3 0.00 0.25 0.24 94 1003.9
20260510004232 55 173 1.7 4.3 0.00 0.25 0.24 94 1003.9
20260510003457 55 172 1.7 4.3 0.00 0.25 0.24 94 1003.8
20260510002927 55 172 0.9 5.2 0.00 0.26 0.24 95 1003.7
20260510002427 56 175 1.7 5.2 0.00 0.27 0.24 95 1003.8
20260510001857 55 180 2.6 5.2 0.00 0.27 0.24 95 1003.7
20260510001353 55 180 2.6 5.2 0.01 0.28 0.24 95 1003.6
20260510000851 55 184 1.7 5.2 0.02 0.29 0.24 95 1003.6
20260510000350 55 184 1.7 4.3 0.04 0.29 0.24 95 1003.5
20260509235814 55 184 2.6 4.3 0.06 0.29 0.24 95 1003.6
20260509235310 55 184 1.7 4.3 0.09 0.29 0.24 95 1003.5
20260509235039 55 184 1.7 3.5 0.12 0.30 0.24 95 1003.4
20260509234307 55 184 1.7 3.5 0.16 0.30 0.24 95 1003.3
20260509234021 55 205 0.9 3.5 0.22 0.30 0.24 95 1003.2
20260509233238 55 178 0.0 2.6 0.24 0.31 0.24 95 1003.3
20260509233006 55 178 0.0 0.0 0.24 0.31 0.24 95 1003.2
20260509232211 54 178 0.0 4.3 0.24 0.31 0.24 95 1003.3
20260509231715 54 126 0.0 0.9 0.23 0.30 0.23 94 1003.5
20260509231425 54 126 0.0 3.5 0.22 0.29 0.22 93 1004.0
20260509230659 54 287 0.9 3.5 0.21 0.28 0.21 93 1004.0
20260509230138 54 271 1.7 7.8 0.20 0.27 0.20 92 1004.3
20260509225621 54 221 2.6 10.4 0.18 0.25 0.18 90 1004.3
20260509225118 55 304 1.7 10.4 0.13 0.20 0.13 88 1004.1
20260509224545 56 265 1.7 16.5 0.11 0.18 0.11 85 1004.1
20260509224048 58 339 3.5 16.5 0.05 0.12 0.05 79 1004.3
20260509223746 62 300 2.6 13.0 0.01 0.08 0.01 73 1004.4
20260509223017 65 318 0.9 8.7 0.00 0.07 0.00 70 1004.0
20260509222453 66 171 3.5 12.2 0.00 0.07 0.00 66 1002.4
20260509221952 67 173 4.3 12.2 0.00 0.07 0.00 62 1002.0
20260509221442 67 163 3.5 8.7 0.00 0.07 0.00 60 1002.1
20260509220941 68 175 4.3 11.3 0.00 0.07 0.00 60 1002.0
20260509220413 68 180 4.3 11.3 0.00 0.07 0.00 58 1002.0
20260509215916 68 189 4.3 13.0 0.00 0.07 0.00 59 1002.1
20260509215400 68 188 4.3 13.0 0.00 0.07 0.00 58 1002.2
20260509214859 68 182 3.5 10.4 0.00 0.07 0.00 60 1002.1
20260509214332 68 214 5.2 12.2 0.00 0.07 0.00 59 1001.8
20260509214027 68 170 7.0 12.2 0.00 0.07 0.00 59 1001.8
20260509213515 69 204 7.0 20.0 0.00 0.07 0.00 59 1001.7
20260509212752 69 169 7.0 20.0 0.00 0.07 0.00 59 1001.7
20260509212256 69 172 5.2 10.4 0.00 0.07 0.00 60 1001.8
20260509211739 68 169 6.1 14.8 0.00 0.07 0.00 60 1001.9
20260509211242 69 181 7.0 14.8 0.00 0.07 0.00 59 1001.7
20260509210723 69 175 6.1 11.3 0.00 0.07 0.00 59 1002.1
20260509210214 69 190 5.2 10.4 0.00 0.07 0.00 58 1002.0
20260509205717 69 210 4.3 11.3 0.00 0.07 0.00 58 1002.3
20260509205209 69 171 4.3 11.3 0.00 0.07 0.00 57 1002.3
20260509204928 69 180 5.2 13.9 0.00 0.07 0.00 57 1002.5
20260509204152 69 180 6.1 13.9 0.00 0.07 0.00 57 1002.4
20260509203921 68 177 6.1 10.4 0.00 0.07 0.00 59 1002.4
20260509203128 68 180 6.1 13.9 0.00 0.07 0.00 60 1002.6
20260509202628 68 205 6.1 13.9 0.00 0.07 0.00 60 1002.6
20260509202113 68 186 6.1 11.3 0.00 0.07 0.00 59 1002.7
20260509201606 68 193 5.2 12.2 0.00 0.07 0.00 60 1003.0
20260509201106 69 174 5.2 12.2 0.00 0.07 0.00 60 1003.1
20260509200604 69 182 3.5 12.2 0.00 0.07 0.00 60 1003.0
20260509200104 69 191 4.3 12.2 0.00 0.07 0.00 61 1003.0
20260509195604 69 223 4.3 12.2 0.00 0.07 0.00 59 1003.0
20260509195324 69 188 4.3 13.0 0.00 0.07 0.00 59 1003.0
20260509194534 68 170 4.3 13.0 0.00 0.07 0.00 61 1003.1
20260509194520 68 185 6.1 13.9 0.00 0.07 0.00 63 1003.1
20260509193532 67 203 7.0 13.9 0.00 0.07 0.00 62 1003.1
20260509193002 67 184 7.0 15.6 0.00 0.07 0.00 61 1003.3
20260509192502 67 229 7.0 15.6 0.00 0.07 0.00 61 1003.2
20260509192002 67 209 6.1 10.4 0.00 0.07 0.00 60 1003.2
20260509191712 67 199 6.1 13.9 0.00 0.07 0.00 61 1003.4
20260509190931 67 186 7.0 13.9 0.00 0.07 0.00 62 1003.5
20260509190423 67 179 7.0 13.9 0.00 0.07 0.00 61 1003.6
20260509185914 67 168 6.1 12.2 0.00 0.07 0.00 61 1003.6
20260509185342 68 174 5.2 11.3 0.00 0.07 0.00 60 1003.8
20260509184810 67 173 4.3 11.3 0.00 0.07 0.00 60 1003.9
20260509184240 67 203 3.5 10.4 0.00 0.07 0.00 58 1003.8
20260509183708 68 182 4.3 13.0 0.00 0.07 0.00 59 1003.8
20260509183136 68 184 4.3 13.0 0.00 0.07 0.00 60 1003.9
20260509182558 68 190 3.5 8.7 0.00 0.07 0.00 61 1003.8
20260509182056 68 186 5.2 10.4 0.00 0.07 0.00 61 1003.7
20260509181559 67 190 5.2 12.2 0.00 0.07 0.00 62 1003.6
20260509181047 67 167 4.3 12.2 0.00 0.07 0.00 61 1003.9
20260509180543 67 178 4.3 12.2 0.00 0.07 0.00 62 1004.1
20260509180046 67 171 4.3 12.2 0.00 0.07 0.00 62 1004.0
20260509175520 66 171 5.2 10.4 0.00 0.07 0.00 66 1004.0
20260509174946 66 159 5.2 10.4 0.00 0.07 0.00 64 1004.0
20260509174418 66 175 5.2 9.6 0.00 0.07 0.00 65 1004.0
20260509174106 66 180 4.3 10.4 0.00 0.07 0.00 63 1004.0
20260509173316 66 180 5.2 11.3 0.00 0.07 0.00 67 1004.0
20260509172744 66 178 3.5 11.3 0.00 0.07 0.00 66 1004.0
20260509172212 65 178 4.3 10.4 0.00 0.07 0.00 67 1004.1
20260509171710 65 174 4.3 10.4 0.00 0.07 0.00 67 1004.1
20260509171654 66 196 3.5 9.6 0.00 0.07 0.00 65 1004.1
20260509170644 65 219 3.5 9.6 0.00 0.07 0.00 66 1004.4
20260509170114 65 179 2.6 9.6 0.00 0.07 0.00 64 1004.4
20260509165540 65 180 1.7 6.1 0.00 0.07 0.00 68 1004.6
20260509165012 65 82 3.5 9.6 0.00 0.07 0.00 68 1004.5
20260509164439 64 191 3.5 9.6 0.00 0.07 0.00 69 1004.5
20260509163937 64 170 3.5 9.6 0.00 0.07 0.00 68 1004.4
20260509163430 64 179 3.5 8.7 0.00 0.07 0.00 68 1004.0
20260509162935 63 151 2.6 8.7 0.00 0.07 0.00 72 1004.3
20260509162429 63 199 1.7 8.7 0.00 0.07 0.00 69 1004.6
20260509162158 63 239 1.7 4.3 0.00 0.07 0.00 73 1004.7
20260509161402 63 175 1.7 4.3 0.00 0.07 0.00 71 1004.9
20260509160848 62 310 0.9 4.3 0.00 0.07 0.00 71 1004.9
20260509160352 63 212 0.9 4.3 0.00 0.07 0.00 73 1005.0
20260509155818 62 213 0.0 1.7 0.00 0.07 0.00 73 1005.0
20260509155240 62 211 0.9 3.5 0.00 0.07 0.00 73 1005.0
20260509154654 62 211 1.7 7.8 0.00 0.07 0.00 74 1005.0
20260509154154 62 170 2.6 7.8 0.00 0.07 0.00 73 1005.0
20260509153608 62 175 2.6 7.8 0.00 0.07 0.00 73 1005.0
20260509153323 62 180 1.7 6.1 0.00 0.07 0.00 72 1005.0
20260509152759 62 212 1.7 5.2 0.00 0.07 0.00 76 1005.0
20260509152007 62 204 2.6 7.8 0.00 0.07 0.00 77 1004.9
20260509151506 61 175 3.5 8.7 0.00 0.07 0.00 80 1004.9
20260509151008 61 170 4.3 8.7 0.00 0.07 0.00 79 1004.7
20260509150444 61 165 2.6 7.8 0.00 0.07 0.00 81 1004.8
20260509150218 60 186 1.7 7.8 0.00 0.07 0.00 84 1004.9
20260509145427 59 201 0.9 3.5 0.00 0.07 0.00 85 1004.9
20260509144930 59 199 0.0 2.6 0.00 0.07 0.00 86 1004.8
20260509144419 58 198 0.0 1.7 0.00 0.07 0.00 87 1004.8
20260509143910 58 198 0.9 2.6 0.00 0.07 0.00 88 1004.9
20260509143346 58 198 0.9 3.5 0.00 0.07 0.00 88 1004.9
20260509142819 57 195 0.9 3.5 0.00 0.07 0.00 87 1004.9
20260509142322 57 175 0.9 1.7 0.00 0.07 0.00 88 1004.8
20260509141758 57 175 0.9 2.6 0.00 0.07 0.00 90 1004.8
20260509141258 57 175 0.0 2.6 0.00 0.07 0.00 90 1004.8
20260509140752 57 175 1.7 6.1 0.00 0.07 0.00 90 1004.7
20260509140257 56 174 2.6 6.1 0.00 0.07 0.00 90 1004.7
20260509135720 56 172 1.7 6.1 0.00 0.07 0.00 92 1004.7
20260509135245 56 159 1.7 4.3 0.00 0.07 0.00 93 1004.8
20260509134152 55 192 0.9 4.3 0.00 0.07 0.00 95 1004.7
20260509133652 55 190 0.9 4.3 0.00 0.07 0.00 95 1004.7
20260509133152 55 170 0.9 3.5 0.00 0.07 0.00 95 1004.7
20260509132638 54 170 1.7 6.1 0.00 0.07 0.00 95 1004.7
20260509132334 54 182 0.9 6.1 0.00 0.07 0.00 95 1004.7
20260509131545 54 180 0.9 3.5 0.00 0.07 0.00 95 1004.8
20260509131046 54 178 1.7 3.5 0.00 0.07 0.00 95 1004.7
20260509130456 54 178 1.7 3.5 0.00 0.07 0.00 96 1004.7
20260509125927 54 178 1.7 3.5 0.00 0.07 0.00 96 1004.8
20260509125425 54 179 0.9 3.5 0.00 0.07 0.00 96 1004.8
20260509124852 54 178 0.9 4.3 0.00 0.07 0.00 96 1004.7
20260509124842 54 178 2.6 5.2 0.00 0.07 0.00 96 1004.7
20260509123818 54 178 1.7 4.3 0.00 0.07 0.00 96 1004.9
20260509123245 53 176 1.7 4.3 0.00 0.07 0.00 97 1004.9
20260509122747 53 176 1.7 4.3 0.00 0.07 0.00 97 1004.9
20260509122155 53 176 1.7 4.3 0.00 0.07 0.00 97 1005.0
20260509121650 53 176 2.6 4.3 0.00 0.07 0.00 97 1004.9
20260509121150 53 176 2.6 4.3 0.00 0.07 0.00 97 1005.0
20260509120619 53 176 2.6 5.2 0.00 0.07 0.00 97 1005.1
20260509120114 53 175 2.6 5.2 0.00 0.07 0.00 97 1005.0
20260509115559 53 175 2.6 5.2 0.00 0.07 0.00 97 1005.1
20260509115104 53 176 2.6 5.2 0.00 0.07 0.00 97 1005.1
20260509114637 52 176 2.6 4.3 0.00 0.07 0.00 97 1005.1
20260509113530 52 176 2.6 4.3 0.00 0.07 0.00 97 1005.1
20260509113031 52 176 1.7 4.3 0.00 0.07 0.00 97 1005.1
20260509112725 52 176 1.7 2.6 0.00 0.07 0.00 97 1005.0
20260509111956 52 175 0.9 2.6 0.00 0.07 0.00 97 1004.9
20260509111431 52 175 0.0 2.6 0.00 0.07 0.00 97 1004.9
20260509110927 52 175 0.9 2.6 0.00 0.07 0.00 97 1004.8
20260509110409 52 175 1.7 3.5 0.00 0.07 0.00 97 1004.7
20260509110130 52 175 1.7 3.5 0.00 0.07 0.00 97 1004.7
20260509105354 52 175 1.7 2.6 0.00 0.07 0.00 97 1004.8
20260509104857 52 175 0.9 2.6 0.00 0.07 0.00 97 1004.7
20260509104333 52 175 0.9 2.6 0.00 0.07 0.00 97 1004.7
20260509103828 52 175 0.0 2.6 0.00 0.07 0.00 97 1004.8
20260509103527 52 175 0.0 0.0 0.00 0.07 0.00 97 1004.8
20260509103032 52 175 0.0 0.0 0.00 0.07 0.00 97 1004.9
20260509102252 52 175 0.0 0.0 0.00 0.07 0.00 97 1004.8
20260509101741 52 175 0.0 0.0 0.00 0.07 0.00 97 1004.8
20260509101222 52 175 0.9 2.6 0.00 0.07 0.00 97 1004.8
20260509100717 52 175 1.7 2.6 0.00 0.07 0.00 97 1004.9
20260509100218 52 175 1.7 2.6 0.00 0.07 0.00 97 1004.9
20260509095704 52 175 0.9 3.5 0.00 0.07 0.00 97 1004.9
20260509095155 52 175 0.0 3.5 0.00 0.07 0.00 96 1004.9
20260509094609 52 175 0.9 2.6 0.00 0.07 0.00 97 1004.9
20260509094042 52 175 1.7 4.3 0.00 0.07 0.00 97 1004.9
20260509093521 52 175 1.7 4.3 0.00 0.07 0.00 97 1005.0
20260509093022 52 175 2.6 4.3 0.00 0.07 0.00 97 1004.9
20260509092458 52 175 1.7 4.3 0.00 0.07 0.00 96 1005.1
20260509091944 52 175 1.7 3.5 0.00 0.07 0.00 96 1005.1
20260509091443 52 175 1.7 3.5 0.00 0.07 0.00 96 1005.2
20260509090941 52 175 1.7 2.6 0.00 0.07 0.00 96 1005.3
20260509090706 52 175 0.9 2.6 0.00 0.07 0.00 96 1005.4
20260509085940 52 175 0.9 2.6 0.00 0.07 0.00 96 1005.3
20260509085439 52 175 1.7 3.5 0.00 0.07 0.00 96 1005.3
20260509085155 52 175 1.7 3.5 0.00 0.07 0.00 96 1005.3
20260509084431 52 175 1.7 3.5 0.00 0.07 0.00 96 1005.3
20260509083856 52 175 1.7 2.6 0.00 0.07 0.00 96 1005.4
20260509083332 52 175 1.7 2.6 0.00 0.07 0.00 96 1005.4
20260509082756 52 175 1.7 3.5 0.00 0.07 0.00 96 1005.4
20260509082232 52 175 2.6 4.3 0.00 0.07 0.00 96 1005.5
20260509081726 52 175 2.6 3.5 0.00 0.07 0.00 96 1005.5
20260509081221 52 175 1.7 3.5 0.00 0.07 0.00 96 1005.5
20260509080714 52 175 1.7 3.5 0.00 0.07 0.00 96 1005.4
20260509080213 52 175 1.7 3.5 0.00 0.07 0.00 96 1005.4
20260509075643 52 175 2.6 5.2 0.00 0.07 0.00 96 1005.3
20260509075124 52 175 2.6 5.2 0.00 0.07 0.00 96 1005.3
20260509074611 52 180 1.7 4.3 0.00 0.07 0.00 96 1005.3
20260509074114 52 180 2.6 6.1 0.00 0.07 0.00 96 1005.3
20260509073528 52 179 2.6 6.1 0.00 0.07 0.00 96 1005.3
20260509073001 52 183 2.6 5.2 0.00 0.07 0.00 96 1005.4
20260509072502 52 192 2.6 5.2 0.00 0.07 0.00 96 1005.6
20260509072004 52 187 2.6 4.3 0.00 0.07 0.00 96 1005.5
20260509071455 52 188 2.6 3.5 0.00 0.07 0.00 96 1005.5
20260509070958 52 188 2.6 4.3 0.00 0.07 0.00 96 1005.6
20260509070421 52 190 2.6 5.2 0.00 0.07 0.00 96 1005.6
20260509065848 52 190 2.6 5.2 0.00 0.07 0.00 96 1005.7
20260509065317 52 187 1.7 5.2 0.00 0.07 0.00 96 1005.6
20260509064803 52 188 1.7 3.5 0.00 0.07 0.00 96 1005.8
20260509064306 52 194 2.6 7.8 0.00 0.07 0.00 96 1005.8
20260509063755 52 194 3.5 7.8 0.00 0.07 0.00 96 1005.8
20260509063300 52 181 3.5 6.1 0.00 0.07 0.00 96 1005.9
20260509062749 52 190 2.6 6.1 0.00 0.07 0.00 96 1005.9
20260509062241 52 189 2.6 5.2 0.00 0.07 0.00 96 1005.9
20260509061740 51 190 2.6 5.2 0.00 0.07 0.00 96 1005.9
20260509061235 51 175 2.6 4.3 0.00 0.07 0.00 96 1006.0
20260509060657 51 175 2.6 4.3 0.00 0.07 0.00 96 1006.1
20260509060154 51 175 2.6 5.2 0.00 0.07 0.00 96 1006.0
20260509055656 52 163 2.6 5.2 0.00 0.07 0.00 96 1006.1